This is the latest recevied weather packets stored in our database for station/object GW1477. If no packets are shown the sender has not sent any weather packets the latest 10 day(s).
| Time | Temp. | Humidity | Pressure | Rain* | Wind** | Luminosity | Snow |
|---|---|---|---|---|---|---|---|
| 1777318247 | 20° C | 34% | - | 0 mm | - | - | - |
| 1777314287 | 20° C | 34% | - | 0 mm | - | - | - |
| 1777313213 | 20° C | 35% | - | 0 mm | - | - | - |
| 1777307091 | 16.67° C | 42% | - | 0 mm | - | - | - |
| 1777305250 | 15.56° C | 46% | - | 0 mm | - | - | - |
| 1777303133 | 14.44° C | 49% | - | 0 mm | - | - | - |
| 1777302731 | 13.89° C | 50% | - | 0 mm | - | - | - |
| 1777301295 | 13.33° C | 52% | - | 0 mm | - | - | - |
| 1777300948 | 12.78° C | 56% | - | 0 mm | - | - | - |
| 1777300590 | 12.22° C | 57% | - | 0 mm | - | - | - |
| 1777297734 | 10° C | 68% | - | 0 mm | - | - | - |
| 1777297359 | 9.44° C | 70% | - | 0 mm | - | - | - |
| 1777296286 | 8.89° C | 73% | - | 0 mm | - | - | - |
| 1777295563 | 8.33° C | 75% | - | 0 mm | - | - | - |
| 1777291238 | 6.11° C | 84% | - | 0 mm | - | - | - |
| 1777289802 | 5.56° C | 85% | - | 0 mm | - | - | - |
| 1777285834 | 5.56° C | 87% | - | 0 mm | - | - | - |
| 1777283679 | 5.56° C | 88% | - | 0 mm | - | - | - |
| 1777278630 | 6.11° C | 89% | - | 0 mm | - | - | - |
| 1777276462 | 5.56° C | 91% | - | 0 mm | - | - | - |
| 1777274670 | 5.56° C | 90% | - | 0 mm | - | - | - |
| 1777274309 | 5.56° C | 92% | - | 0 mm | - | - | - |
| 1777273609 | 5° C | 92% | - | 0 mm | - | - | - |
| 1777271065 | 4.44° C | 93% | - | 0 mm | - | - | - |
| 1777270356 | 4.44° C | 93% | - | 0 mm | - | - | - |
* Rain since midnight (hover to see other rain measurements)
** Current wind speed in m/s (hover to see current wind gust speed)